Location: Beacon Field Observatory
(38.7700°N, 77.0829°W)
Time: 13:28:51
(UTC-05:00)

UKube-1 - Visible Passes

Search period start: 08 December 2019 00:00
Search period end: 18 December 2019 00:00
Orbit: 612 x 620 km, 98.4° (Epoch: 08 December)

Date Brightness Start Highest point End Pass type
(mag) Time Alt. Az. Time Alt. Az. Time Alt. Az.
08 Dec ? 03:53:01 10° ESE 03:53:14 11° ESE 03:53:14 11° ESE visible
08 Dec ? 05:28:21 10° SSW 05:30:19 22° SW 05:30:19 22° SW visible
08 Dec ? 17:15:36 10° NNE 17:19:45 44° E 17:23:52 10° S visible
08 Dec ? 18:52:45 10° NNW 18:55:19 16° WNW 18:57:54 10° WSW visible
09 Dec ? 04:08:28 10° SE 04:09:26 16° SE 04:09:26 16° SE visible
09 Dec ? 05:45:06 10° SW 05:46:31 16° SW 05:46:31 16° SW visible
09 Dec ? 17:31:32 10° NNE 17:35:51 69° ESE 17:40:07 10° S visible
09 Dec ? 19:10:14 10° NW 19:11:13 11° WNW 19:12:11 10° WNW visible
10 Dec ? 04:24:08 10° SSE 04:25:39 21° SE 04:25:39 21° SE visible
10 Dec ? 06:02:22 10° WSW 06:02:44 11° WSW 06:02:44 11° WSW visible
10 Dec ? 17:47:35 10° N 17:51:54 78° WNW 17:56:12 10° SSW visible
11 Dec ? 04:40:01 10° SSE 04:41:51 25° SSE 04:41:51 25° SSE visible
11 Dec ? 18:03:44 10° N 18:07:56 51° WNW 18:12:06 10° SSW visible
12 Dec ? 04:56:03 10° S 04:58:03 27° S 04:58:03 27° S visible
12 Dec ? 18:20:01 10° N 18:23:55 34° WNW 18:27:49 10° SW visible
13 Dec ? 05:12:17 10° S 05:14:16 25° SSW 05:14:16 25° SSW visible
13 Dec ? 18:36:27 10° NNW 18:39:52 23° WNW 18:43:18 10° WSW visible
14 Dec ? 05:28:44 10° SSW 05:30:28 20° SW 05:30:28 20° SW visible
14 Dec ? 17:16:04 10° NNE 17:20:11 43° E 17:24:18 10° S visible
14 Dec ? 18:53:07 10° NNW 18:55:48 16° WNW 18:58:27 10° WSW visible
15 Dec ? 04:08:57 10° SE 04:09:36 14° SE 04:09:36 14° SE visible
15 Dec ? 05:45:28 10° SW 05:46:41 15° SW 05:46:41 15° SW visible
15 Dec ? 17:31:59 10° NNE 17:36:17 66° E 17:40:34 10° S visible
15 Dec ? 19:10:26 10° NW 19:11:40 11° WNW 19:12:54 10° W visible
16 Dec ? 04:24:36 10° SE 04:25:48 18° SE 04:25:48 18° SE visible
16 Dec ? 06:02:39 10° SW 06:02:53 11° WSW 06:02:53 11° WSW visible
16 Dec ? 17:48:00 10° N 17:52:20 81° WNW 17:56:39 10° SSW visible
17 Dec ? 04:40:27 10° SSE 04:42:01 22° SSE 04:42:01 22° SSE visible
17 Dec ? 18:04:09 10° N 18:08:22 53° WNW 18:12:34 10° SSW visible
